Skip Page Navigation
NASA JPL Caltech
NASA Logo - Jet Propulsion Laboratory + View the NASA Portal
+ Near-Earth Object (NEO) Program
Search JPL
JPL Home Earth Solar System Stars & Galaxies Technology
JPL Solar System Dynamics
BODIES ORBITS EPHEMERIDES TOOLS PHYSICAL DATA DISCOVERY FAQ SITE MAP
JPL Small-Body Database Browser
Search: [ help ]  
18122 Forestamartin (2000 NL27)
Classification: Main-belt Asteroid          SPK-ID: 2018122
Ephemeris | Orbit Diagram | Orbital Elements | Physical Parameters | Discovery Circumstances ]

[ show orbit diagram ]
Orbital Elements at Epoch 2456400.5 (2013-Apr-18.0) TDB
Reference: JPL 1 (heliocentric ecliptic J2000)
 Element Value Uncertainty (1-sigma)   Units 
e .1158116616263608 6.5441e-08  
a 2.926241630876305 2.8609e-08 AU
q 2.587348725284288 1.8836e-07 AU
i 2.323444147310795 6.2103e-06 deg
node 32.19946023578468 0.00014395 deg
peri 8.973941052113751 0.00014621 deg
M 116.7639667234771 2.604e-05 deg
tp 2455807.479040036725
(2011-Sep-02.97904004)
0.00013051 JED
period 1828.368387760968
5.01
2.6813e-05
7.341e-08
d
yr
n .1968968630226966 2.8875e-09 deg/d
Q 3.265134536468321 3.1922e-08 AU
  Orbit Determination Parameters
   # obs. used (total)      1205  
   data-arc span      13258 days (36.30 yr)  
   first obs. used      1976-12-20  
   last obs. used      2013-04-08  
   planetary ephem.      DE405  
   SB-pert. ephem.      SB405-CPV-2  
   condition code      0  
   fit RMS      .52883  
   data source      ORB  
   producer      Otto Matic  
   solution date      2013-Apr-29 14:17:53  

Additional Information
 Earth MOID = 1.59485 AU 
 T_jup = 3.267 
[ show covariance matrix ]

Ephemeris | Orbit Diagram | Orbital Elements | Physical Parameters | Discovery Circumstances ]

Physical Parameter Table
Parameter Symbol Value Units Sigma Reference Notes
absolute magnitude H 13.4 mag n/a PDS3 (MPO 4251)  

18122 Forestamartin           Discovered 2000 July 4 by the Lowell Observatory Near-Earth Object Search at the Anderson Mesa Station.
Franco Foresta Martin (b. 1945), an excellent science popularizer, both in print and on television, has for the past 30 years been the scientific editor for the Italian newspaper Corriere della Sera. The name was suggested by S. Montebugnoli and V. Zappalà.
NOTE: some special characters may not display properly (any characters within {} are an attempt to place the proper accent above a character)
Reference: 20060613/MPCPages.arcLast Updated: 2008-05-22

Alternate Designations
 2000 NL27 = 1976 YB7 = 1986 WH2 = 1998 FA21 = 1999 JW48 
Ephemeris | Orbit Diagram | Orbital Elements | Physical Parameters | Discovery Circumstances ]
ABOUT SSD CREDITS/AWARDS PRIVACY/COPYRIGHT GLOSSARY LINKS
FirstGov 2013-Jun-20 06:23 UT
(server date/time)  
NASA Home Page
Site Manager:   Donald K. Yeomans
Webmaster  Alan B. Chamberlin